Olivia, MN

1:38 AM CST on February 22, 2017 (GMT -0600)
Olivia Regional

Weather History for KOVL - July, 2013

Change the Weather History Date:

Saturday, July 20, 2013

  Actual Average (KRWF) Record (KRWF)
Temperature  
Mean Temperature 68 °F -  
Max Temperature 78 °F 83 °F 105 °F (1932)
Min Temperature 59 °F 62 °F 49 °F (1950)
Cooling Degree Days 4    
Growing Degree Days 18 (Base 50)    
Moisture  
Dew Point 60 °F    
Average Humidity 71    
Maximum Humidity 88    
Minimum Humidity 51    
Precipitation  
Precipitation 0.00 in - - ()
Sea Level Pressure  
Sea Level Pressure 29.93 in    
Wind  
Wind Speed 3 mph (NNE)    
Max Wind Speed 10 mph    
Max Gust Speed 17 mph    
Visibility 10 miles    
Events      
Averages and records for this station are not official NWS values.
T = Trace of Precipitation, MM = Missing Value Source: NWS Daily Summary

Daily Weather History Graph

Daily Weather History Graph

Search for Another Location

Airport or City:

Trip Planner

Search our weather history database for the weather conditions in past years. The results will help you decide how hot, cold, wet, or windy it might be!

Date:

Astronomy

Jul. 20, 2013 Rise Set
Actual Time 5:53 AM CDT 8:58 PM CDT
Civil Twilight 5:18 AM CDT 9:33 PM CDT
Nautical Twilight 4:33 AM CDT 10:18 PM CDT
Astronomical Twilight 3:38 AM CDT 11:12 PM CDT
Moon 7:02 PM CDT (7/20) 3:34 AM CDT (7/20)
Length of Visible Light 16h 15m
Length of Day
15h 05m
Waxing Gibbous, 94% of the Moon is Illuminated
Jul 20
Waxing Gibbous
Jul 22
Full
Jul 29
Last Quarter
Aug 6
New
Aug 14
First Quarter

Hourly Weather History & Observations

Time (CDT) Temp. Dew Point Humidity Pressure Visibility Wind Dir Wind Speed Gust Speed Precip Events Conditions
12:13 AM 69.8 °F 60.8 °F 73% 29.92 in 10.0 mi North 5.8 mph - N/A   Scattered Clouds
12:34 AM 69.8 °F 62.6 °F 78% 29.92 in 10.0 mi Calm Calm - N/A   Clear
12:53 AM 68.0 °F 60.8 °F 78% 29.92 in 10.0 mi Calm Calm - N/A   Clear
1:14 AM 68.0 °F 60.8 °F 78% 29.92 in 10.0 mi SSE 4.6 mph - N/A   Clear
1:33 AM 66.2 °F 60.8 °F 83% 29.92 in 10.0 mi South 3.5 mph - N/A   Clear
1:54 AM 64.4 °F 59.0 °F 83% 29.91 in 10.0 mi Calm Calm - N/A   Clear
2:14 AM 64.4 °F 59.0 °F 83% 29.91 in 10.0 mi Calm Calm - N/A   Clear
2:34 AM 64.4 °F 59.0 °F 83% 29.90 in 10.0 mi Calm Calm - N/A   Clear
2:54 AM 62.6 °F 59.0 °F 88% 29.90 in 10.0 mi Calm Calm - N/A   Clear
3:14 AM 60.8 °F 57.2 °F 88% 29.90 in 10.0 mi NNE 4.6 mph - N/A   Clear
3:34 AM 60.8 °F 57.2 °F 88% 29.90 in 10.0 mi Calm Calm - N/A   Clear
3:54 AM 60.8 °F 57.2 °F 88% 29.90 in 10.0 mi Calm Calm - N/A   Clear
4:13 AM 60.8 °F 55.4 °F 82% 29.91 in 10.0 mi Calm Calm - N/A   Clear
4:34 AM 60.8 °F 55.4 °F 82% 29.91 in 10.0 mi Calm Calm - N/A   Clear
4:54 AM 60.8 °F 55.4 °F 82% 29.90 in 10.0 mi Calm Calm - N/A   Clear
5:13 AM 60.8 °F 57.2 °F 88% 29.91 in 10.0 mi Calm Calm - N/A   Clear
5:34 AM 59.0 °F 55.4 °F 88% 29.92 in 10.0 mi WNW 3.5 mph - N/A   Clear
5:54 AM 60.8 °F 57.2 °F 88% 29.93 in 10.0 mi Calm Calm - N/A   Clear
6:13 AM 60.8 °F 55.4 °F 82% 29.93 in 7.0 mi WNW 3.5 mph - N/A   Clear
6:33 AM 60.8 °F 57.2 °F 88% 29.92 in 10.0 mi Calm Calm - N/A   Clear
6:54 AM 62.6 °F 59.0 °F 88% 29.93 in 10.0 mi Calm Calm - N/A   Clear
7:13 AM 62.6 °F 59.0 °F 88% 29.94 in 10.0 mi NNW 4.6 mph - N/A   Clear
7:33 AM 62.6 °F 59.0 °F 88% 29.94 in 10.0 mi NNW 4.6 mph - N/A   Scattered Clouds
7:54 AM 64.4 °F 60.8 °F 88% 29.95 in 10.0 mi NNW 5.8 mph - N/A   Scattered Clouds
8:14 AM 68.0 °F 62.6 °F 83% 29.95 in 10.0 mi Calm Calm - N/A   Clear
8:33 AM 69.8 °F 62.6 °F 78% 29.96 in 10.0 mi Calm Calm - N/A   Clear
8:54 AM 69.8 °F 62.6 °F 78% 29.97 in 10.0 mi West 3.5 mph - N/A   Clear
9:14 AM 69.8 °F 60.8 °F 73% 29.96 in 10.0 mi West 3.5 mph - N/A   Clear
9:34 AM 69.8 °F 60.8 °F 73% 29.96 in 10.0 mi Calm Calm - N/A   Clear
9:53 AM 71.6 °F 60.8 °F 69% 29.95 in 10.0 mi NW 4.6 mph - N/A   Clear
10:14 AM 73.4 °F 62.6 °F 69% 29.95 in 10.0 mi NW 4.6 mph - N/A   Clear
10:34 AM 73.4 °F 60.8 °F 65% 29.96 in 10.0 mi NNW 9.2 mph - N/A   Clear
10:54 AM 73.4 °F 60.8 °F 65% 29.97 in 10.0 mi NNW 10.4 mph - N/A   Clear
11:13 AM 73.4 °F 60.8 °F 65% 29.96 in 10.0 mi NNW 10.4 mph 17.3 mph N/A   Clear
11:34 AM 73.4 °F 60.8 °F 65% 29.96 in 10.0 mi NNW 9.2 mph - N/A   Clear
11:53 AM 77.0 °F 60.8 °F 57% 29.95 in 10.0 mi NNW 9.2 mph - N/A   Clear
12:14 PM 73.4 °F 60.8 °F 65% 29.95 in 10.0 mi North 4.6 mph - N/A   Clear
12:33 PM 73.4 °F 60.8 °F 65% 29.96 in 10.0 mi North 3.5 mph - N/A   Clear
12:53 PM 73.4 °F 60.8 °F 65% 29.96 in 10.0 mi NNW 5.8 mph - N/A   Clear
1:14 PM 73.4 °F 60.8 °F 65% 29.94 in 10.0 mi NNW 6.9 mph - N/A   Clear
1:34 PM 73.4 °F 62.6 °F 69% 29.93 in 10.0 mi NE 4.6 mph - N/A   Clear
1:53 PM 75.2 °F 60.8 °F 61% 29.93 in 10.0 mi NE 4.6 mph - N/A   Clear
2:14 PM 77.0 °F 62.6 °F 61% 29.92 in 10.0 mi ENE 3.5 mph - N/A   Scattered Clouds
2:34 PM 77.0 °F 60.8 °F 57% 29.92 in 10.0 mi Calm Calm - N/A   Scattered Clouds
2:54 PM 78.8 °F 60.8 °F 54% 29.93 in 10.0 mi NE 3.5 mph - N/A   Scattered Clouds
3:14 PM 77.0 °F 60.8 °F 57% 29.93 in 10.0 mi East 4.6 mph - N/A   Scattered Clouds
3:33 PM 77.0 °F 60.8 °F 57% 29.93 in 10.0 mi ENE 3.5 mph - N/A   Clear
3:54 PM 77.0 °F 60.8 °F 57% 29.93 in 10.0 mi NNE 3.5 mph - N/A   Scattered Clouds
4:14 PM 77.0 °F 60.8 °F 57% 29.93 in 10.0 mi East 3.5 mph - N/A   Scattered Clouds
4:33 PM 77.0 °F 59.0 °F 54% 29.93 in 10.0 mi Calm Calm - N/A   Clear
4:54 PM 78.8 °F 60.8 °F 54% 29.93 in 10.0 mi Calm Calm - N/A   Clear
5:14 PM 77.0 °F 59.0 °F 54% 29.93 in 10.0 mi Calm Calm - N/A   Scattered Clouds
5:34 PM 77.0 °F 60.8 °F 57% 29.93 in 10.0 mi Calm Calm - N/A   Overcast
5:53 PM 77.0 °F 59.0 °F 54% 29.92 in 10.0 mi Calm Calm - N/A   Mostly Cloudy
6:14 PM 78.8 °F 59.0 °F 51% 29.92 in 10.0 mi North 3.5 mph - N/A   Scattered Clouds
6:34 PM 78.8 °F 59.0 °F 51% 29.91 in 10.0 mi North 3.5 mph - N/A   Clear
6:53 PM 77.0 °F 59.0 °F 54% 29.91 in 10.0 mi Calm Calm - N/A   Clear
7:14 PM 77.0 °F 59.0 °F 54% 29.91 in 10.0 mi Calm Calm - N/A   Clear
7:33 PM 77.0 °F 59.0 °F 54% 29.91 in 10.0 mi Calm Calm - N/A   Clear
7:53 PM 77.0 °F 62.6 °F 61% 29.91 in 10.0 mi NE 4.6 mph - N/A   Clear
8:12 PM 73.4 °F 60.8 °F 65% 29.91 in 10.0 mi NE 3.5 mph - N/A   Clear
8:33 PM 73.4 °F 62.6 °F 69% 29.91 in 10.0 mi Calm Calm - N/A   Clear
8:52 PM 73.4 °F 64.4 °F 73% 29.91 in 10.0 mi ENE 3.5 mph - N/A   Clear
9:13 PM 71.6 °F 62.6 °F 73% 29.91 in 10.0 mi ENE 3.5 mph - N/A   Clear
9:34 PM 69.8 °F 60.8 °F 73% 29.92 in 10.0 mi Calm Calm - N/A   Clear
9:54 PM 69.8 °F 60.8 °F 73% 29.94 in 10.0 mi NE 3.5 mph - N/A   Clear
10:11 PM 69.8 °F 62.6 °F 78% 29.94 in 10.0 mi Calm Calm - N/A   Clear
10:33 PM 69.8 °F 60.8 °F 73% 29.94 in 10.0 mi East 5.8 mph - N/A   Clear
10:54 PM 69.8 °F 59.0 °F 68% 29.95 in 10.0 mi East 5.8 mph - N/A   Clear
11:13 PM 69.8 °F 60.8 °F 73% 29.95 in 10.0 mi East 5.8 mph - N/A   Clear
11:34 PM 69.8 °F 60.8 °F 73% 29.94 in 10.0 mi East 8.1 mph - N/A   Clear
11:53 PM 69.8 °F 59.0 °F 68% 29.94 in 10.0 mi East 5.8 mph - N/A   Clear